STARLINK-1938

decayed
NORAD ID: 47551 Int'l Des: 2021-009 Owner: SPXS Country: US Constellation: starlink
LEOCIRCULAR
Gruppe

Über STARLINK-1938

Beschreibung wird geladen...

Höhenverlauf

Altitude vs Time

uPlot chart will show altitude changes over time

Zweizeiliger Elementsatz

1 47551U 21009D 25027.85923551 .13902875 12356-4 53694-3 0 9994
2 47551 53.0204 9.7776 0006389 176.4273 259.4477 16.43646985220701
Epoch: 27. Jan. 2025 • Age: 5303 hours

Aktueller Status

Position data unavailable
Startdatum 4. Feb. 2021
Alter 4.5 years
Verglühungsdatum 28. Jan. 2025
Typ internet

Technische Details

Klassifizierung Payload
Masse 260.00 kg
Trockenmasse 248.00 kg
Gesamtmasse 260.00 kg
Länge 0.20 m
Durchmesser 2.80 m
Spannweite 9.00 m
Form Box + pan
Hersteller SPXS
Bus-Typ Starlink
Phasenstatus Unknown Transfer Status
Besitzer/Staat SPXS/US

Große Konstellationen

Loading constellations...